Temp
61 61 61 60 60 60 60 60 60 60 61 61 61 61 61 61 61 68 68 78 79 75 73 85 82 84 84 79 82 82 63 61 66 69 72 80 78 86 89 82 84 85 82 81 82
61 61 61 60 60 60 60 60 60 60 60 61 61 61 61 61 61 67 79 78 78 75 80 81 78 81 75 76 78 73 62 67 76 78 75 78 79 82 83 81 82 81 83 84 83
61 61 61 61 61 60 59 60 60 60 60 60 60 60 60 60 60 74 75 76 78 77 86 86 85 81 73 77 77 75 67 75 78 82 82 78 78 83 81 74 78 77 78 79 78
60 60 61 60 60 60 59 60 60 60 60 60 60 60 60 59 56 78 75 74 74 83 85 82 80 73 71 70 79 71 77 79 81 84 82 77 82 81 80 78 85 84 81 79 77
59 59 60 60 60 60 59 59 60 60 60 60 60 60 57 59 65 84 77 76 81 80 80 78 74 74 68 74 77 74 77 82 84 84 78 82 80 80 79 84 87 87 81 77 75
58 59 59 59 59 59 59 59 59 59 59 60 60 60 55 51 78 87 87 83 85 78 79 79 76 79 74 74 73 79 80 80 82 81 79 79 80 79 81 84 85 84 79 79 77
57 57 58 58 59 59 59 58 58 58 59 60 61 60 55 58 82 84 81 78 81 83 77 81 83 77 73 68 78 78 73 77 79 79 77 82 73 74 81 84 81 80 80 79 78
57 57 57 58 58 59 59 58 58 59 60 61 62 57 50 75 77 74 79 78 82 85 84 85 84 77 74 74 74 69 71 63 73 77 81 77 65 75 80 79 77 80 80 80 76
57 56 57 57 57 58 58 57 58 60 61 62 56 53 51 77 69 78 79 76 82 83 86 88 82 73 71 65 62 65 57 61 67 79 78 75 69 76 81 80 76 76 77 78 74
57 56 56 56 57 57 56 57 59 59 61 65 64 53 62 64 77 79 79 81 79 79 78 77 73 65 65 61 51 56 57 64 64 73 75 73 70 74 78 78 75 74 75 76 72
57 57 56 56 56 56 54 54 53 50 56 54 56 59 73 76 82 80 81 77 75 71 63 71 60 57 62 66 67 66 64 63 69 76 73 69 69 72 76 75 74 73 72 72 70
57 57 56 56 56 55 51 46 54 57 49 63 64 65 72 77 69 77 86 70 67 59 68 63 57 68 71 70 67 66 63 62 70 76 72 70 68 71 73 74 74 73 72 71 68
56 56 56 56 55 51 49 52 62 60 47 58 66 64 66 71 66 69 78 75 67 62 63 60 65 73 71 68 66 65 62 63 64 71 74 68 62 68 75 74 77 76 74 71 70
55 55 55 55 49 53 53 64 67 63 40 51 60 64 69 69 62 78 80 75 70 62 64 63 71 70 67 65 68 60 71 70 68 64 52 66 47 60 67 69 74 76 72 69 69
55 55 55 55 47 48 58 63 67 63 26 62 64 78 70 63 70 69 80 75 66 66 66 60 65 65 64 66 71 64 73 70 69 63 57 60 50 56 65 65 69 70 72 68 70
55 55 55 52 49 53 60 64 58 38 28 57 72 66 62 64 67 76 71 76 76 68 69 66 74 71 68 73 74 75 70 68 68 65 51 56 55 54 59 67 67 70 71 71 68
55 55 53 57 48 60 62 53 34 30 56 57 64 66 64 60 61 65 63 61 58 54 55 64 66 73 75 67 73 71 61 50 43 46 41 61 55 55 66 72 73 69 69 69 70
53 53 53 56 57 59 54 40 27 43 44 56 56 60 57 65 61 62 61 57 64 63 55 52 51 66 74 69 64 65 63 52 38 39 47 61 51 59 72 74 74 74 71 70 68
52 50 50 54 58 57 42 30 33 41 51 52 52 50 53 58 59 61 60 59 63 65 54 53 55 72 75 77 73 64 59 66 53 54 49 53 59 67 70 71 71 71 70 67 67
48 48 48 58 58 48 35 32 40 50 53 52 41 48 42 46 49 53 59 66 64 68 69 59 51 68 73 76 75 70 70 57 49 41 37 50 53 53 63 66 69 67 65 64 65
46 39 51 58 54 41 30 34 44 52 53 46 43 42 42 42 47 47 53 66 70 68 69 66 55 59 70 65 64 66 64 61 57 52 41 40 47 63 66 67 66 66 67 65 65
43 34 53 57 37 37 34 40 47 48 51 49 50 48 43 46 43 43 50 59 74 73 63 67 54 52 59 73 76 71 66 59 54 47 51 49 50 70 68 67 70 68 70 67 67
40 40 52 50 33 32 40 43 47 46 48 46 44 49 52 42 37 45 52 62 64 57 65 67 58 44 52 61 69 67 69 65 59 54 50 47 49 70 71 69 72 69 70 71 68
40 32 41 44 42 37 37 39 39 50 49 50 48 50 48 44 46 42 45 57 59 60 59 68 59 55 48 55 64 63 66 68 59 49 52 56 57 63 67 69 68 69 71 71 71
41 37 43 32 35 39 40 41 38 39 48 50 45 45 46 40 42 42 48 50 55 59 53 57 56 60 63 66 66 68 67 67 63 59 57 59 59 64 67 69 70 72 72 72 71
37 37 40 37 41 39 39 37 39 42 44 42 42 45 45 42 43 40 45 44 44 50 48 50 55 61 58 66 67 64 69 69 68 66 62 65 63 70 75 74 71 72 74 73 73
46 46 40 38 37 35 37 39 37 42 46 49 49 46 46 47 51 46 47 48 47 44 44 45 46 55 51 63 62 55 67 68 68 68 67 59 63 68 68 73 70 71 75 74 75
MSLP
1019.37 1019.13 1018.61 1018.37 1018.07 1017.33 1017.05 1016.96 1016.77 1016.35 1016.32 1015.82 1015.51 1015.55 1014.21 1014.44 1013.73 1012.90 1011.64 1009.17 1008.72 1008.92 1009.43 1008.98 1009.30 1009.07 1009.06 1009.15 1008.91 1008.78 1009.32 1008.42 1007.48 1006.53 1005.10 1004.18 1003.63 1003.14 1002.74 1002.87 1002.95 1003.32 1004.05 1004.98 1006.12
1018.26 1018.04 1017.99 1017.95 1017.60 1017.47 1017.47 1017.10 1016.68 1016.42 1016.38 1015.86 1015.61 1014.93 1014.30 1014.56 1013.95 1011.40 1008.39 1007.55 1007.58 1008.15 1009.25 1008.74 1008.44 1008.64 1008.83 1008.38 1008.37 1008.28 1008.27 1007.05 1006.40 1005.62 1004.76 1004.11 1003.55 1003.20 1003.00 1002.87 1002.99 1003.76 1004.52 1005.19 1005.83
1018.36 1017.99 1017.57 1017.13 1016.94 1016.90 1016.68 1016.52 1016.39 1016.36 1016.09 1015.87 1015.35 1014.67 1014.73 1014.40 1013.21 1008.12 1006.80 1006.63 1006.87 1007.52 1008.07 1008.06 1008.07 1008.12 1008.30 1007.96 1007.47 1007.24 1006.82 1006.02 1005.44 1004.78 1004.13 1003.74 1003.40 1003.02 1003.02 1003.10 1003.07 1003.81 1004.55 1005.13 1005.86
1018.70 1018.33 1017.98 1017.64 1017.24 1016.89 1016.62 1016.28 1016.20 1016.35 1016.25 1015.74 1015.18 1014.75 1014.27 1014.12 1011.52 1006.79 1006.48 1006.26 1006.32 1007.11 1007.67 1007.60 1007.83 1007.86 1007.50 1007.26 1006.60 1006.55 1005.71 1005.20 1004.38 1003.79 1003.57 1003.30 1003.07 1003.11 1002.78 1002.62 1002.63 1003.26 1004.15 1005.08 1005.75
1018.53 1018.23 1017.91 1017.56 1017.34 1017.06 1016.74 1016.58 1016.27 1015.89 1015.54 1015.26 1014.85 1014.52 1014.03 1012.61 1009.24 1006.48 1006.39 1006.54 1006.65 1007.20 1007.08 1007.30 1007.62 1007.26 1006.86 1006.11 1006.04 1005.47 1004.98 1004.29 1003.47 1003.02 1002.76 1002.78 1002.79 1002.70 1002.42 1002.29 1002.46 1003.04 1003.81 1004.67 1005.24
1018.14 1017.76 1017.32 1016.98 1016.62 1016.22 1015.95 1015.70 1015.48 1015.33 1015.11 1014.94 1014.76 1014.73 1013.96 1011.24 1007.49 1006.48 1006.20 1006.37 1006.32 1006.78 1006.51 1006.84 1006.39 1006.13 1006.37 1006.05 1005.73 1005.05 1004.33 1003.63 1003.14 1002.59 1002.22 1002.35 1002.31 1002.11 1001.83 1001.72 1002.26 1002.63 1003.35 1003.82 1004.47
1017.96 1017.60 1017.20 1016.74 1016.24 1015.80 1015.39 1015.10 1014.87 1014.66 1014.53 1014.50 1014.36 1014.12 1012.57 1008.40 1006.52 1005.57 1005.76 1005.91 1005.91 1005.64 1005.97 1005.92 1005.84 1006.34 1005.98 1005.82 1005.34 1004.83 1004.05 1003.37 1002.82 1002.35 1001.90 1001.89 1001.87 1001.61 1001.54 1001.57 1002.02 1002.38 1002.85 1003.34 1003.79
1017.50 1017.15 1016.79 1016.35 1015.94 1015.47 1015.01 1014.63 1014.22 1013.88 1013.57 1013.66 1013.66 1013.52 1010.16 1006.95 1006.11 1005.89 1005.42 1005.53 1005.10 1005.22 1004.74 1004.98 1005.35 1005.82 1006.10 1005.70 1005.32 1005.10 1004.40 1003.32 1002.60 1002.08 1001.47 1001.66 1001.20 1001.22 1001.18 1001.58 1001.88 1001.97 1002.19 1002.72 1003.12
1017.09 1016.73 1016.37 1016.02 1015.60 1015.13 1014.72 1014.14 1013.35 1012.84 1012.65 1013.01 1013.11 1012.19 1008.19 1005.29 1005.30 1003.56 1004.45 1004.47 1004.17 1004.23 1004.27 1004.68 1004.95 1005.46 1005.64 1005.70 1005.59 1004.93 1004.23 1003.20 1002.19 1001.58 1001.21 1000.94 1000.63 1000.39 1000.54 1001.14 1001.50 1001.71 1001.86 1002.20 1002.59
1016.75 1016.44 1016.02 1015.65 1015.23 1014.86 1014.31 1013.31 1011.27 1011.73 1011.31 1011.74 1011.42 1011.27 1007.43 1003.88 1002.94 1002.48 1002.90 1003.54 1003.65 1003.78 1003.96 1004.15 1004.48 1005.03 1005.19 1005.32 1004.20 1004.65 1003.93 1003.02 1001.96 1000.84 1000.77 1000.48 1000.22 1000.16 1000.23 1000.54 1000.92 1001.26 1001.21 1001.79 1002.39
1016.30 1015.92 1015.66 1015.37 1014.87 1014.61 1014.10 1012.59 1010.54 1010.81 1010.03 1007.96 1006.87 1005.35 1002.66 1002.57 1001.77 1001.53 1002.04 1002.85 1003.46 1003.50 1003.46 1003.44 1004.01 1003.47 1003.68 1003.96 1004.08 1004.12 1003.50 1002.63 1001.22 1000.54 1000.36 1000.39 1000.42 1000.06 999.99 1000.40 1000.51 1000.59 1001.01 1001.45 1002.10
1016.09 1015.59 1015.21 1014.83 1014.41 1014.35 1014.37 1013.33 1010.81 1010.41 1008.52 1006.22 1005.06 1004.20 1003.13 1002.44 1001.70 1000.84 1000.60 1002.09 1002.47 1002.45 1003.00 1003.49 1001.63 1002.45 1002.84 1003.23 1003.27 1003.20 1002.94 1001.98 1001.03 1000.33 1000.00 1000.79 1000.16 999.74 999.95 1000.03 999.51 999.74 1000.30 1001.03 1002.32
1015.85 1015.37 1015.00 1014.70 1014.08 1013.51 1012.91 1011.87 1009.78 1010.17 1008.59 1004.00 1002.86 1002.13 1002.27 1002.55 1000.82 1000.11 1000.01 1000.21 1000.77 1001.59 1001.75 1001.28 1000.58 1001.86 1002.06 1002.09 1002.13 1001.92 1001.95 1001.56 1001.27 1000.17 999.75 999.87 1000.04 999.60 999.21 999.11 999.02 998.90 999.44 1000.64 1001.52
1015.57 1015.05 1014.70 1014.48 1014.31 1012.94 1011.41 1010.15 1008.98 1009.38 1007.93 1001.80 1000.07 998.45 999.95 1001.09 998.87 999.13 998.69 999.28 999.66 999.98 1000.89 1000.33 1000.79 1000.57 1000.84 1000.79 1001.16 1001.01 1000.77 1001.02 1000.85 1000.66 1000.67 999.83 1000.24 999.98 999.54 999.23 998.77 998.59 999.48 1000.59 1001.68
1015.18 1014.80 1014.45 1014.45 1014.17 1012.97 1010.98 1009.96 1008.59 1007.92 1006.26 998.21 995.89 994.92 995.64 996.88 996.18 996.45 997.31 998.11 998.02 998.67 999.68 998.43 998.98 999.34 999.32 999.34 999.95 999.68 1000.04 1000.27 1000.43 1000.72 1000.79 1000.43 1000.77 999.83 999.49 999.34 998.77 999.11 999.22 1000.62 1001.37
1014.58 1014.28 1014.09 1013.93 1013.65 1012.19 1011.19 1010.05 1009.13 1008.35 1003.18 996.84 993.75 993.94 995.41 996.10 995.57 994.89 995.96 997.32 997.67 998.17 998.09 998.13 998.16 998.28 998.31 998.68 998.85 999.11 999.49 999.83 1000.27 1000.87 1000.95 1000.85 1000.76 999.91 999.62 998.95 998.60 998.87 999.55 1000.56 1001.72
1014.03 1013.66 1013.65 1013.24 1012.54 1011.70 1011.33 1010.78 1009.90 1006.50 1000.89 996.71 994.43 995.31 994.67 995.36 996.31 995.77 996.41 996.71 996.34 997.21 996.73 997.52 997.00 997.20 997.30 997.65 997.90 998.28 999.02 1000.05 1000.69 1000.73 1000.77 1000.55 1000.27 999.42 998.48 998.23 998.36 999.06 999.91 1000.83 1001.83
1013.46 1013.11 1012.72 1012.44 1012.28 1011.85 1011.81 1011.50 1008.98 1004.47 1002.71 997.98 998.08 997.00 996.88 995.26 995.19 995.59 996.11 996.16 996.37 995.97 996.48 996.53 996.24 995.52 995.44 995.71 996.29 997.08 998.01 999.08 1000.18 1000.74 1000.86 1000.22 999.73 998.23 997.45 997.42 998.01 998.72 999.70 1000.83 1001.98
1012.94 1012.44 1011.79 1011.36 1011.44 1011.68 1012.11 1010.66 1007.42 1005.52 1003.50 1001.52 1000.76 999.34 997.66 996.87 997.21 995.40 995.20 994.68 994.45 994.94 995.26 995.29 994.62 993.55 994.01 994.41 995.29 995.88 996.29 997.54 999.45 1000.07 1000.72 1000.13 999.01 997.82 997.55 997.91 998.50 999.17 1000.24 1001.33 1002.15
1012.76 1012.01 1010.62 1010.27 1010.59 1011.46 1012.06 1009.59 1007.36 1006.31 1005.10 1004.36 1003.56 1002.61 1001.10 1000.57 999.14 997.51 994.67 993.41 993.74 994.36 995.03 994.21 994.68 993.47 993.30 993.86 993.82 994.31 995.26 996.96 998.44 1000.16 1000.62 1000.06 999.12 998.31 997.97 998.05 998.48 999.41 1000.39 1001.49 1002.24
1012.68 1011.97 1009.84 1009.56 1010.26 1011.51 1010.94 1009.81 1007.91 1006.98 1006.22 1005.61 1004.87 1004.33 1003.51 1003.00 1001.03 1000.02 995.96 993.01 992.54 992.85 993.99 994.74 994.18 993.09 993.26 992.30 992.67 993.41 994.41 995.69 997.48 999.04 999.91 1000.09 999.04 997.11 996.97 997.46 998.61 999.41 1000.11 1001.08 1001.98
1013.05 1012.21 1010.08 1009.94 1011.03 1011.16 1010.57 1009.68 1008.15 1007.18 1006.63 1006.03 1005.13 1004.35 1004.39 1003.65 1002.19 1000.98 997.28 994.88 992.55 992.57 992.98 993.12 993.96 993.80 992.06 991.50 991.85 992.62 993.51 995.03 996.74 998.36 998.91 999.43 998.61 996.49 996.72 997.18 997.92 998.98 999.82 1000.68 1001.61
1013.00 1011.80 1010.11 1009.96 1010.74 1010.77 1010.04 1009.15 1008.13 1007.26 1006.29 1006.01 1005.28 1004.54 1004.13 1004.68 1003.88 1001.11 998.26 996.13 994.97 994.97 992.40 992.99 993.69 993.92 992.43 991.87 991.37 991.67 992.29 993.69 995.34 997.03 998.10 998.53 997.80 996.66 996.30 996.76 997.40 998.56 999.51 1000.29 1001.25
1013.34 1012.33 1010.81 1010.86 1010.76 1010.53 1009.73 1008.60 1007.71 1006.77 1005.87 1005.55 1005.02 1004.42 1003.64 1003.89 1004.21 1001.89 999.95 997.43 996.69 995.72 994.03 992.42 992.55 992.53 991.52 990.50 990.48 990.91 991.70 992.83 994.45 995.79 996.83 996.95 996.86 996.66 996.46 996.60 997.50 998.19 998.86 999.72 1000.50
1013.17 1012.28 1011.18 1010.96 1010.51 1010.00 1009.46 1008.60 1007.60 1006.54 1005.76 1005.03 1004.50 1004.39 1003.46 1003.27 1003.38 1002.66 1001.27 999.43 997.81 996.18 995.16 993.38 992.31 991.86 991.48 991.06 990.26 989.97 990.69 991.66 992.72 994.42 995.12 995.60 995.81 995.71 995.79 996.03 996.55 997.19 998.20 999.22 1000.04
1013.51 1012.71 1012.03 1011.49 1010.40 1009.87 1009.30 1008.41 1007.35 1006.31 1005.35 1004.44 1004.23 1003.75 1003.15 1002.66 1003.01 1002.48 1002.38 1001.83 1000.31 997.56 997.57 995.22 992.59 991.71 991.55 990.62 990.08 990.13 989.40 990.24 991.36 992.79 993.66 994.22 994.47 994.54 994.62 994.90 995.58 996.43 997.37 998.32 999.07
1013.08 1012.84 1012.95 1011.66 1010.64 1010.02 1009.11 1008.43 1007.54 1006.55 1005.08 1004.27 1003.77 1003.05 1001.91 1001.68 1001.87 1003.06 1002.96 1002.22 1001.18 1000.47 999.22 997.21 994.40 992.41 991.54 990.78 990.34 989.80 989.02 989.20 990.19 991.33 992.16 993.01 993.36 993.57 994.11 994.59 994.95 995.61 996.39 997.19 997.97
Wind_Speed
10 10 11 11 12 13 14 14 14 15 15 15 16 18 17 16 21 4 11 13 11 13 1 4 8 11 10 9 12 13 6 12 18 16 13 8 6 5 7 2 3 10 6 11 13
16 15 12 11 12 11 12 13 15 15 16 15 16 18 18 16 7 13 18 20 19 15 7 11 14 12 8 10 9 9 6 19 16 16 14 9 7 6 7 9 4 8 10 14 14
16 15 15 16 15 12 12 15 15 16 17 16 17 18 18 16 6 9 2 15 19 19 17 14 12 14 16 15 17 14 16 16 17 17 16 8 9 8 10 4 1 11 11 10 6
15 16 16 14 15 14 13 14 15 16 17 17 17 17 20 3 8 3 1 6 10 15 12 12 16 14 18 18 20 17 21 20 21 19 15 6 8 15 7 5 6 8 14 8 9
15 16 16 14 14 14 13 14 15 16 17 17 17 16 10 7 15 5 5 5 6 7 18 17 14 17 20 22 18 21 20 22 20 18 6 7 13 17 6 5 5 8 13 12 11
16 16 17 16 15 15 15 16 15 15 15 16 15 14 5 15 11 15 17 9 7 7 12 14 15 20 13 16 21 19 19 20 19 15 7 13 17 6 8 4 7 7 10 11 11
15 15 15 16 17 16 15 16 17 17 18 17 15 8 10 23 8 12 11 7 6 13 15 17 16 13 5 10 12 18 21 22 19 12 12 14 10 8 9 8 9 9 9 9 12
16 16 17 17 17 17 18 18 19 20 22 18 13 7 12 9 17 24 25 20 14 16 15 13 13 16 15 8 15 18 19 19 10 12 18 10 14 11 8 7 9 11 9 12 12
16 16 16 18 19 19 19 20 25 26 23 15 7 6 12 11 14 28 19 18 12 14 15 17 15 11 7 13 12 10 13 16 14 18 21 12 18 14 9 8 10 9 10 11 9
16 15 17 19 20 19 19 24 27 19 12 9 10 4 9 12 12 15 18 20 13 12 17 17 12 13 12 9 17 12 10 11 17 21 18 16 11 6 11 11 12 10 9 9 10
19 17 16 16 20 18 14 10 2 3 8 13 16 14 12 18 7 13 13 14 14 11 14 19 9 18 25 21 14 16 15 19 22 22 19 8 6 8 7 9 8 9 7 9 10
20 19 17 18 20 17 8 5 13 6 12 22 27 27 25 18 14 17 15 17 15 21 16 14 25 22 20 17 18 18 20 23 22 17 8 18 22 8 9 10 9 11 10 6 11
19 18 16 15 19 12 8 14 13 12 9 14 23 29 22 20 27 23 15 20 19 20 23 27 19 19 20 21 19 19 21 21 18 21 14 4 5 6 8 5 9 10 8 15 21
17 17 15 11 9 8 11 16 16 10 7 11 13 16 23 15 27 27 26 17 19 23 22 23 19 18 23 21 18 19 18 21 22 17 7 2 6 3 5 10 9 7 9 14 15
17 17 14 5 8 7 11 18 19 6 7 8 15 13 19 32 11 25 30 23 22 22 22 17 24 25 24 22 24 21 16 18 20 16 5 6 3 6 3 9 8 2 4 12 17
19 17 13 6 6 14 14 18 6 2 14 9 3 17 17 28 17 4 33 26 17 19 23 21 12 20 28 22 23 22 13 17 18 14 11 7 8 7 6 6 1 5 11 14 13
20 17 10 7 7 10 11 7 2 10 11 6 7 8 23 19 26 18 23 27 25 22 23 21 24 22 23 23 24 17 14 10 5 5 6 7 4 9 8 7 8 10 11 10 14
17 11 7 9 9 10 4 2 12 13 23 28 28 28 16 12 22 28 17 26 25 23 10 16 16 30 25 30 18 20 17 10 8 5 5 7 6 10 12 8 10 14 13 13 14
13 5 7 9 9 7 2 9 10 11 18 21 30 21 9 25 19 24 26 27 30 28 19 19 18 17 27 20 25 14 19 14 5 2 4 5 5 7 6 8 9 12 13 13 13
3 4 8 9 10 4 3 12 11 11 20 21 21 16 22 23 17 19 15 28 27 30 21 7 5 21 22 20 19 27 7 8 1 8 6 5 4 7 9 10 9 11 11 9 10
3 4 5 5 5 2 4 6 11 14 17 18 20 20 21 20 19 19 14 14 29 27 30 17 5 7 19 24 24 14 17 7 8 7 7 1 8 9 14 9 14 11 12 14 12
2 3 6 5 3 3 6 7 9 18 18 19 19 15 15 18 18 12 12 12 8 18 30 30 6 11 17 18 25 18 14 9 9 5 5 6 7 7 9 11 15 13 14 12 11
3 4 1 4 3 4 6 15 17 20 18 13 12 19 13 8 10 11 14 25 17 19 20 21 19 4 7 11 14 25 19 9 6 6 8 6 7 5 8 10 15 16 14 14 12
3 4 2 1 3 7 8 10 13 13 17 12 14 17 14 13 13 17 25 15 28 19 21 20 15 25 14 9 10 26 16 16 10 5 7 10 4 6 7 9 10 14 16 15 15
3 3 4 3 4 7 8 11 17 17 16 17 8 16 15 11 16 20 21 25 19 11 21 6 24 18 25 20 10 21 22 22 18 10 15 9 9 12 12 11 12 19 17 15 14
3 3 5 7 7 9 6 11 16 16 12 10 12 13 16 14 12 22 18 14 11 14 19 10 14 23 18 20 22 15 28 22 19 14 7 13 13 9 12 10 9 18 20 19 17
3 3 3 6 6 5 4 10 15 16 11 12 14 16 9 10 6 7 11 15 20 20 17 9 7 13 21 19 13 14 17 23 20 12 14 12 7 4 5 13 11 13 21 21 19
Wind_Direction
330 334 341 341 337 343 342 338 334 333 326 328 328 317 329 325 311 223 236 228 193 195 212 191 213 236 255 226 229 250 255 262 269 277 284 328 15 297 344 180 238 175 129 147 154
326 326 327 329 335 337 332 332 331 328 322 325 321 323 324 330 279 249 241 213 238 164 205 210 205 215 227 242 232 228 230 248 260 273 292 301 335 334 337 308 281 92 97 142 153
317 316 317 322 326 328 329 327 324 320 320 321 322 326 313 326 278 238 278 221 221 175 207 228 239 208 228 234 241 242 240 252 261 262 275 290 318 299 292 289 73 165 165 156 147
328 318 309 306 310 311 310 313 316 313 313 316 321 323 314 261 249 153 260 119 179 198 210 228 243 238 231 234 236 244 245 249 254 258 250 278 290 285 269 235 89 128 163 154 168
326 321 318 309 300 296 296 296 301 307 310 314 319 324 331 224 236 246 109 105 128 183 214 221 236 247 243 236 238 241 246 255 263 269 227 261 263 265 258 293 120 132 147 175 184
326 322 322 319 313 302 301 300 300 295 297 306 313 317 215 242 260 248 263 209 189 189 221 219 224 234 267 247 249 253 254 258 261 269 251 254 260 254 243 265 180 191 179 189 176
323 328 318 314 312 313 310 300 295 291 291 297 303 291 252 234 266 305 307 281 277 194 216 230 236 245 253 289 273 268 273 275 269 265 263 252 252 257 232 225 228 222 199 192 190
322 320 327 322 313 309 307 300 293 289 286 292 299 259 250 252 236 248 262 265 266 254 208 229 227 238 249 262 281 282 276 260 258 269 265 228 252 237 239 223 263 212 195 200 209
321 322 316 318 319 313 305 298 289 280 277 279 255 206 268 255 227 237 213 228 241 264 212 220 229 218 255 236 264 260 256 257 263 254 263 241 254 212 209 233 259 221 222 221 199
313 312 315 314 313 316 312 298 277 275 263 229 238 237 254 234 229 219 209 219 218 239 217 221 231 228 241 231 226 235 259 250 256 254 258 259 241 203 210 211 235 245 241 212 166
321 306 307 310 309 317 328 326 221 159 232 202 189 211 273 217 296 226 187 203 222 239 220 207 202 215 218 228 231 237 245 247 251 247 252 321 285 216 224 253 238 257 250 224 168
321 316 301 309 308 310 304 257 274 346 286 236 241 227 246 283 288 276 190 188 193 218 212 226 228 222 226 219 234 226 248 260 272 275 124 229 250 236 223 235 226 230 243 214 126
318 314 302 300 308 301 215 234 258 291 266 251 237 233 229 240 249 251 248 199 193 208 214 220 222 221 228 220 231 232 229 250 259 277 284 242 234 236 253 265 277 241 187 145 151
313 309 304 308 294 298 280 336 320 192 278 263 217 244 214 213 256 227 241 217 210 206 210 234 224 221 218 230 226 240 228 240 254 265 254 264 269 289 289 293 298 252 166 154 144
308 308 296 256 304 313 309 310 316 142 273 217 211 182 189 190 131 207 217 225 215 204 200 208 206 210 226 213 223 239 225 233 242 253 252 292 331 260 259 290 284 152 204 151 148
306 300 289 264 217 249 284 317 307 227 246 264 131 174 160 202 222 18 190 215 217 226 221 220 228 208 222 231 220 230 229 233 243 245 246 226 208 256 232 231 139 128 119 137 128
308 296 277 255 258 306 313 312 261 227 285 242 237 183 186 188 212 237 183 204 208 200 216 218 223 225 223 220 232 219 218 237 265 223 202 216 272 237 258 202 166 139 132 132 134
308 290 244 232 247 266 289 256 227 238 249 296 322 318 293 182 205 212 208 207 213 210 170 207 220 213 212 220 211 224 206 210 212 178 226 245 231 254 221 154 131 124 138 129 131
304 257 236 236 228 239 116 229 225 244 281 306 335 321 351 346 341 195 218 207 209 207 206 192 225 189 213 215 212 222 211 200 203 205 194 214 251 338 111 126 120 118 123 135 142
290 290 259 224 215 197 199 239 255 271 295 310 315 312 320 329 328 353 219 215 211 210 218 250 192 230 209 213 234 214 184 188 183 192 246 282 283 226 157 164 139 127 138 134 140
282 314 263 193 158 115 231 260 271 270 294 313 312 315 312 315 306 318 263 250 206 199 207 225 214 243 210 204 213 217 217 182 146 151 172 216 276 230 175 164 149 146 146 146 152
13 293 293 125 149 196 243 262 302 298 292 291 286 281 277 294 302 304 275 317 235 198 200 209 194 234 232 206 207 215 205 167 179 216 174 168 257 161 153 146 143 150 148 149 148
286 275 186 96 216 215 255 274 277 275 292 299 286 303 270 292 299 291 306 329 336 349 212 190 224 297 255 266 209 205 194 172 131 130 189 177 246 234 132 132 146 150 153 153 155
299 309 28 198 207 260 296 285 285 286 289 278 291 300 276 261 273 286 303 311 331 330 324 194 194 213 220 209 192 196 183 186 158 157 171 216 205 167 149 139 144 154 158 163 163
243 270 327 295 305 291 302 286 288 292 270 273 278 291 276 249 276 278 289 318 327 342 348 294 202 199 224 248 246 195 187 188 201 172 186 194 168 181 174 174 175 162 161 159 164
285 335 346 295 300 307 304 291 287 290 310 297 288 252 270 253 246 280 305 319 300 324 346 326 227 201 223 223 241 258 190 187 197 193 182 177 234 175 193 186 161 158 162 170 171
335 349 346 294 292 300 276 303 306 311 288 283 295 311 283 246 256 301 284 272 270 284 303 284 330 187 215 222 238 239 218 192 201 195 182 195 181 205 188 185 176 163 166 172 174